Meteo Giornale » Osservazioni meteo Italia » Cagliari-Elmas

ore: 22:50 - Osservazioni Meteo Cagliari-Elmas
Lat. 39° 15' N Lon. 9° 4' E Alt. 4 metri s.l.m.

nuvoloso Europe/Rome

9 °C

Nuvoloso

Temp. 24 Ore

1 °C

13 °C

Nord

5.5 Km/h

Dew point 6 °C

Umidità 81 %

Visibilità  8 Km

Il sole sorge alle ore 07:05

Il sole tramonta alle ore 18:08

Data e Ora Cielo e Fenomeni T °C DP °C Um. % Pres. hPa Vis. km Vento km/h
Oggi h: 22:50 nuvoloso Nuvoloso 9 6 81 1001 8 N 5.5
Oggi h: 22:20 nuvoloso Nuvoloso 9 5 75 1001 8 N 5.5
Oggi h: 21:50 nuvoloso Nuvoloso 9 4 70 1001 8 N 3.7
Oggi h: 21:20 nuvoloso Nuvoloso 9 4 70 1001 10 N 1.8
Oggi h: 20:50 nuvoloso Nuvoloso 9 5 75 1001 10 N 7.4
Oggi h: 20:20 nuvoloso Nuvoloso 9 5 75 1001 10 NO 7.4
Oggi h: 19:50 nuvoloso Nuvoloso 9 5 75 1001 10 N 3.7
Oggi h: 19:20 nuvoloso Nuvoloso 9 5 75 1001 10 N 5.5
Oggi h: 18:50 nuvoloso Nuvoloso 10 5 71 1001 10 O/SO 7.4
Oggi h: 18:20 nuvoloso Nuvoloso 10 4 66 1001 10 O/SO 9.3
Oggi h: 17:50 nuvoloso Nuvoloso 10 4 66 1001 10 O/SO 13
Oggi h: 17:20 nuvoloso Nuvoloso 11 4 61 1001 10 O/SO 11.1
Oggi h: 16:50 nuvoloso Nuvoloso 11 2 53 1001 10 O 9.3
Oggi h: 16:20 nuvoloso Nuvoloso 12 1 46 1001 10 N 5.5
Oggi h: 15:50 nuvoloso Nuvoloso 12 1 46 1001 10 O/NO 7.4
Oggi h: 15:20 nuvoloso Nuvoloso 12 0 43 1001 10 N 9.3
Oggi h: 14:50 nuvoloso Nuvoloso 13 1 43 1002 10 N 11.1
Oggi h: 14:20 poco_nuvoloso Poco Nuvoloso 13 -0 40 1002 10 N/NO 11.1
Oggi h: 13:50 poco_nuvoloso Poco Nuvoloso 12 -0 43 1002 10 N 11.1
Oggi h: 13:20 poco_nuvoloso Poco Nuvoloso 12 1 46 1002 10 NO 13
Oggi h: 12:50 poco_nuvoloso Poco Nuvoloso 12 2 50 1003 10 NO 14.8
Oggi h: 12:20 poco_nuvoloso Poco Nuvoloso 12 4 57 1003 10 NO 13
Oggi h: 11:50 poco_nuvoloso Poco Nuvoloso 11 3 57 1003 10 O/NO 11.1
Oggi h: 11:20 poco_nuvoloso Poco Nuvoloso 10 4 66 1003 10 O/NO 11.1
Oggi h: 10:50 sereno Sereno 9 4 70 1003 10 O/NO 9.3
Oggi h: 10:20 sereno Sereno 8 5 81 1003 10 O 9.3
Oggi h: 09:50 sereno Sereno 7 5 87 1003 10 O/NO 9.3
Oggi h: 09:20 sereno Sereno 5 4 93 1003 10 O/NO 7.4
Oggi h: 08:50 sereno Sereno 4 3 93 1003 10 N 5.5
Oggi h: 08:20 sereno Sereno 3 2 93 1003 10 N 5.5
Oggi h: 07:50 sereno Sereno 2 1 93 1003 10 N/NO 11.1
Oggi h: 07:20 sereno Sereno 1 1 100 1003 10 N 7.4
Oggi h: 06:50 sereno Sereno 1 1 100 1003 10 N/NO 11.1
Oggi h: 06:20 sereno Sereno 2 2 100 1003 10 N/NE 7.4
Oggi h: 05:50 sereno Sereno 2 1 93 1003 10 N 9.3
Oggi h: 05:20 sereno Sereno 3 2 93 1003 10 N/NO 11.1
Oggi h: 04:50 sereno Sereno 2 2 100 1003 10 N/NO 11.1
Oggi h: 04:20 sereno Sereno 4 3 93 1003 10 NO 9.3
Oggi h: 03:50 sereno Sereno 3 3 100 1003 10 N 14.8
Oggi h: 03:20 sereno Sereno 3 2 93 1003 10 N/NO 13
Oggi h: 02:50 sereno Sereno 4 3 93 1003 10 N/NO 14.8
Oggi h: 02:20 sereno Sereno 4 3 93 1004 10 N/NO 13
Oggi h: 01:50 sereno Sereno 4 3 93 1004 10 N/NO 14.8
Oggi h: 01:20 sereno Sereno 4 3 93 1004 10 N/NO 13
Oggi h: 00:50 sereno Sereno 5 4 93 1004 10 N 16.7
Oggi h: 00:20 sereno Sereno 4 4 100 1004 10 N/NO 9.3
Ieri h: 23:50 poco_nuvoloso Poco Nuvoloso 4 4 100 1004 7 N/NO 9.3
Ieri h: 23:20 foschia Foschia 4 4 100 1004 2 N/NO 9.3
Ieri h: 22:50 nebbia Nebbia 6 5 93 1004 0.6 NO 13